Вернуться в каталог

FENGYUN 1C DEB

АктивенSSO
NORAD 29942·DEBRIS·🇨🇳 China

Запущен May 10, 1999 с Taiyuan Satellite Launch Center

Loading…

Ближайшие Пролёты (ближайшие 24 часа)

TLE

СвежийSource: Space-Track

Эпоха: Sep 14, 2026, 03:19 UTC

1 29942U 99025JQ  26257.13876649  .00000971  00000-0  37895-3 0  9999
2 29942  98.6101 325.7485 0049519 185.5122 174.5522 14.31227529 18066

Отслеживайте FENGYUN 1C DEB в реальном времени с AllMySat

Download on the App Store